SWA2280 PHNL-KSAN

Flight info

Callsign SWA2280
Flight time 5h 3m
Altitude 35000
Route MKK5 KOLEA CLUTS R465 CIVIT R585 GITLE ADUMM GALIP AUDIA RYDRR LAX COMIX2
Aircraft B38M/M-SDE1FGHILORVWXY/HB1

Departure

Time 2026-04-24 20:19
Airport Daniel K. Inouye International Airport (PHNL)

Arrival

Time 2026-04-25 01:23
Airport San Diego International Airport (KSAN)
Time Latitude Longitude Altitude Speed Heading
2026-04-24 19:47 21.32868 -157.92066 26 ft 0 kts 43°
2026-04-24 20:10 21.32866 -157.92068 36 ft 3 kts 43°
2026-04-24 20:10 21.32847 -157.92087 26 ft 4 kts 43°
2026-04-24 20:11 21.32827 -157.92107 26 ft 3 kts 43°
2026-04-24 20:11 21.32809 -157.92121 26 ft 4 kts 19°
2026-04-24 20:11 21.32786 -157.92120 26 ft 4 kts 324°
2026-04-24 20:11 21.32773 -157.92099 26 ft 4 kts 275°
2026-04-24 20:12 21.32773 -157.92071 26 ft 4 kts 269°
2026-04-24 20:12 21.32773 -157.92048 26 ft 0 kts 269°
2026-04-24 20:14 21.32773 -157.92058 26 ft 2 kts 269°
2026-04-24 20:14 21.32773 -157.92081 26 ft 4 kts 269°
2026-04-24 20:14 21.32773 -157.92116 26 ft 5 kts 269°
2026-04-24 20:15 21.32772 -157.92163 27 ft 7 kts 269°
2026-04-24 20:15 21.32772 -157.92236 27 ft 13 kts 269°
2026-04-24 20:15 21.32773 -157.92355 27 ft 19 kts 271°
2026-04-24 20:15 21.32773 -157.92522 27 ft 23 kts 270°
2026-04-24 20:16 21.32769 -157.92685 27 ft 22 kts 264°
2026-04-24 20:16 21.32748 -157.92854 27 ft 23 kts 268°
2026-04-24 20:16 21.32746 -157.93032 27 ft 24 kts 269°
2026-04-24 20:16 21.32743 -157.93217 27 ft 25 kts 270°
2026-04-24 20:17 21.32742 -157.93409 27 ft 26 kts 270°
2026-04-24 20:17 21.32742 -157.93814 27 ft 28 kts 269°
2026-04-24 20:17 21.32741 -157.94007 27 ft 25 kts 266°
2026-04-24 20:18 21.32690 -157.94098 27 ft 16 kts 218°
2026-04-24 20:18 21.32567 -157.94140 27 ft 13 kts 152°
2026-04-24 20:18 21.32526 -157.94055 27 ft 14 kts 96°
2026-04-24 20:18 21.32524 -157.93868 27 ft 52 kts 89°
2026-04-24 20:19 21.32526 -157.93224 27 ft 119 kts 90°
2026-04-24 20:19 21.32558 -157.92169 237 ft 147 kts 86°
2026-04-24 20:19 21.32595 -157.91033 674 ft 171 kts 86°
2026-04-24 20:19 21.32536 -157.89591 881 ft 211 kts 91°
2026-04-24 20:20 21.32486 -157.88076 1981 ft 203 kts 89°
2026-04-24 20:20 21.32425 -157.86471 2577 ft 225 kts 86°
2026-04-24 20:20 21.32764 -157.84869 3606 ft 218 kts 63°
2026-04-24 20:20 21.33545 -157.83441 4476 ft 227 kts 61°
2026-04-24 20:21 21.34310 -157.81919 5317 ft 233 kts 62°
2026-04-24 20:21 21.35094 -157.80340 6042 ft 248 kts 62°
2026-04-24 20:21 21.35931 -157.78639 6586 ft 267 kts 62°
2026-04-24 20:21 21.36806 -157.76860 7404 ft 271 kts 61°
2026-04-24 20:22 21.37693 -157.75058 8258 ft 276 kts 60°
2026-04-24 20:22 21.38601 -157.73210 9028 ft 283 kts 60°
2026-04-24 20:22 21.39522 -157.71333 9909 ft 286 kts 59°
2026-04-24 20:22 21.40468 -157.69407 10477 ft 300 kts 59°
2026-04-24 20:23 21.41471 -157.67359 10818 ft 320 kts 59°
2026-04-24 20:23 21.42532 -157.65183 11145 ft 338 kts 59°
2026-04-24 20:23 21.43644 -157.62903 11598 ft 350 kts 59°
2026-04-24 20:23 21.44779 -157.60579 12305 ft 353 kts 59°
2026-04-24 20:24 21.45931 -157.58229 12960 ft 358 kts 59°
2026-04-24 20:24 21.47094 -157.55852 13632 ft 362 kts 59°
2026-04-24 20:24 21.48271 -157.53448 14245 ft 366 kts 59°
2026-04-24 20:24 21.49460 -157.51016 14820 ft 369 kts 59°
2026-04-24 20:25 21.50659 -157.48567 15408 ft 372 kts 59°
2026-04-24 20:25 21.51867 -157.46095 15966 ft 376 kts 59°
2026-04-24 20:25 21.53070 -157.43633 16511 ft 379 kts 60°
2026-04-24 20:25 21.54314 -157.41087 17088 ft 381 kts 60°
2026-04-24 20:26 21.55550 -157.38554 17630 ft 384 kts 60°
2026-04-24 20:26 21.56779 -157.36037 18171 ft 387 kts 60°
2026-04-24 20:26 21.58032 -157.33466 18660 ft 390 kts 60°
2026-04-24 20:26 21.59293 -157.30880 19122 ft 392 kts 60°
2026-04-24 20:27 21.60562 -157.28275 19550 ft 395 kts 60°
2026-04-24 20:27 21.61841 -157.25650 20021 ft 398 kts 60°
2026-04-24 20:27 21.63128 -157.23005 20453 ft 401 kts 60°
2026-04-24 20:27 21.64423 -157.20345 20906 ft 403 kts 60°
2026-04-24 20:28 21.65726 -157.17665 21340 ft 406 kts 60°
2026-04-24 20:28 21.67039 -157.14962 21774 ft 409 kts 60°
2026-04-24 20:28 21.68361 -157.12240 22196 ft 412 kts 60°
2026-04-24 20:28 21.69693 -157.09499 22606 ft 415 kts 60°
2026-04-24 20:29 21.70597 -157.07634 22886 ft 417 kts 60°
2026-04-24 20:29 21.72383 -157.03953 23423 ft 421 kts 61°
2026-04-24 20:29 21.73743 -157.01149 23807 ft 424 kts 60°
2026-04-24 20:29 21.75108 -156.98327 24170 ft 426 kts 61°
2026-04-24 20:30 21.76478 -156.95499 24620 ft 425 kts 61°
2026-04-24 20:30 21.77846 -156.92673 24997 ft 427 kts 61°
2026-04-24 20:30 21.79218 -156.89836 25390 ft 428 kts 62°
2026-04-24 20:30 21.80593 -156.86991 25781 ft 428 kts 62°
2026-04-24 20:31 21.81969 -156.84144 26151 ft 430 kts 62°
2026-04-24 20:31 21.83349 -156.81287 26524 ft 431 kts 62°
2026-04-24 20:31 21.84734 -156.78417 26842 ft 433 kts 62°
2026-04-24 20:31 21.86123 -156.75538 27181 ft 435 kts 63°
2026-04-24 20:32 21.87519 -156.72644 27508 ft 436 kts 63°
2026-04-24 20:32 21.88918 -156.69740 27812 ft 438 kts 63°
2026-04-24 20:32 21.90324 -156.66822 28151 ft 440 kts 63°
2026-04-24 20:32 21.91735 -156.63891 28453 ft 442 kts 63°
2026-04-24 20:33 21.93151 -156.60946 28755 ft 444 kts 63°
2026-04-24 20:33 21.94573 -156.57990 29051 ft 445 kts 63°
2026-04-24 20:33 21.96000 -156.55019 29354 ft 447 kts 63°
2026-04-24 20:33 21.97430 -156.52042 29684 ft 448 kts 63°
2026-04-24 20:34 21.98866 -156.49051 30003 ft 449 kts 63°
2026-04-24 20:34 22.00300 -156.46061 30326 ft 450 kts 63°
2026-04-24 20:34 22.01741 -156.43057 30548 ft 452 kts 63°
2026-04-24 20:34 22.03187 -156.40040 30788 ft 454 kts 63°
2026-04-24 20:35 22.04636 -156.37015 31074 ft 454 kts 63°
2026-04-24 20:35 22.06086 -156.33986 31341 ft 455 kts 63°
2026-04-24 20:35 22.07538 -156.30953 31634 ft 455 kts 63°
2026-04-24 20:35 22.08990 -156.27915 31925 ft 456 kts 63°
2026-04-24 20:36 22.10441 -156.24878 32204 ft 456 kts 63°
2026-04-24 20:36 22.11893 -156.21839 32517 ft 456 kts 63°
2026-04-24 20:36 22.13344 -156.18798 32805 ft 456 kts 62°
2026-04-24 20:36 22.14798 -156.15751 33055 ft 457 kts 62°
2026-04-24 20:37 22.16252 -156.12699 33320 ft 458 kts 62°
2026-04-24 20:37 22.17712 -156.09637 33533 ft 460 kts 62°
2026-04-24 20:37 22.19175 -156.06563 33776 ft 461 kts 62°
2026-04-24 20:37 22.20639 -156.03485 34007 ft 462 kts 62°
2026-04-24 20:38 22.22104 -156.00404 34328 ft 460 kts 62°
2026-04-24 20:38 22.23564 -155.97334 34549 ft 461 kts 62°
2026-04-24 20:38 22.25028 -155.94251 34707 ft 462 kts 62°
2026-04-24 20:38 22.26497 -155.91157 34866 ft 464 kts 62°
2026-04-24 20:39 22.27971 -155.88048 35024 ft 466 kts 61°
2026-04-24 20:39 22.29449 -155.84930 35135 ft 467 kts 62°
2026-04-24 20:39 22.32394 -155.78711 35145 ft 468 kts 61°
2026-04-24 20:40 22.35355 -155.72450 35141 ft 468 kts 62°
2026-04-24 20:40 22.38314 -155.66188 35146 ft 468 kts 62°
2026-04-24 20:41 22.41272 -155.59921 35140 ft 468 kts 62°
2026-04-24 20:41 22.44222 -155.53659 35146 ft 466 kts 62°
2026-04-24 20:42 22.47151 -155.47436 35137 ft 464 kts 62°
2026-04-24 20:42 22.50074 -155.41218 35137 ft 464 kts 62°
2026-04-24 20:43 22.52995 -155.34996 35140 ft 464 kts 62°
2026-04-24 20:43 22.55915 -155.28768 35144 ft 464 kts 62°
2026-04-24 20:44 22.58873 -155.22551 35132 ft 465 kts 56°
2026-04-24 20:44 22.62796 -155.17040 35123 ft 464 kts 50°
2026-04-24 20:45 22.66780 -155.11562 35147 ft 463 kts 50°
2026-04-24 20:45 22.70763 -155.06109 35139 ft 461 kts 50°
2026-04-24 20:46 22.74743 -155.00659 35139 ft 461 kts 50°
2026-04-24 20:46 22.78717 -154.95208 35138 ft 461 kts 50°
2026-04-24 20:47 22.82695 -154.89750 35141 ft 461 kts 50°
2026-04-24 20:47 22.86670 -154.84286 35140 ft 461 kts 50°
2026-04-24 20:48 22.90644 -154.78820 35146 ft 461 kts 50°
2026-04-24 20:48 22.94582 -154.73397 35141 ft 460 kts 50°
2026-04-24 20:49 22.98540 -154.67943 35141 ft 460 kts 50°
2026-04-24 20:49 23.02194 -154.62233 35161 ft 461 kts 55°
2026-04-24 20:50 23.05140 -154.57349 35134 ft 461 kts 54°
2026-04-24 20:50 23.09257 -154.50601 35138 ft 461 kts 54°
2026-04-24 20:51 23.12802 -154.44791 35138 ft 461 kts 54°
2026-04-24 20:51 23.16342 -154.38980 35138 ft 461 kts 55°
2026-04-24 20:52 23.19284 -154.34144 35140 ft 461 kts 54°
2026-04-24 20:52 23.22846 -154.28288 35138 ft 462 kts 54°
2026-04-24 20:53 23.26383 -154.22463 35138 ft 461 kts 54°
2026-04-24 20:53 23.29895 -154.16675 35138 ft 461 kts 54°
2026-04-24 20:54 23.33428 -154.10844 35135 ft 461 kts 55°
2026-04-24 20:54 23.36957 -154.05014 35138 ft 461 kts 54°
2026-04-24 20:55 23.40474 -153.99197 35136 ft 460 kts 55°
2026-04-24 20:55 23.43990 -153.93375 35135 ft 460 kts 54°
2026-04-24 20:56 23.47505 -153.87549 35138 ft 460 kts 54°
2026-04-24 20:56 23.51015 -153.81721 35135 ft 460 kts 54°
2026-04-24 20:57 23.54526 -153.75888 35138 ft 460 kts 54°
2026-04-24 20:57 23.58036 -153.70049 35143 ft 461 kts 54°
2026-04-24 20:58 23.61537 -153.64218 35134 ft 459 kts 54°
2026-04-24 20:58 23.65009 -153.58429 35138 ft 459 kts 54°
2026-04-24 20:59 23.68502 -153.52597 35138 ft 459 kts 54°
2026-04-24 20:59 23.71994 -153.46763 35135 ft 459 kts 54°
2026-04-24 21:00 23.75482 -153.40928 35137 ft 459 kts 54°
2026-04-24 21:00 23.78977 -153.35084 35138 ft 460 kts 54°
2026-04-24 21:01 23.82475 -153.29241 35137 ft 459 kts 54°
2026-04-24 21:01 23.85964 -153.23408 35136 ft 459 kts 54°
2026-04-24 21:02 23.89453 -153.17566 35138 ft 459 kts 54°
2026-04-24 21:02 23.92939 -153.11725 35138 ft 459 kts 54°
2026-04-24 21:03 23.96424 -153.05877 35136 ft 459 kts 54°
2026-04-24 21:03 23.99909 -153.00021 35135 ft 459 kts 54°
2026-04-24 21:04 24.03391 -152.94166 35136 ft 458 kts 54°
2026-04-24 21:04 24.06863 -152.88319 35127 ft 458 kts 54°
2026-04-24 21:05 24.10332 -152.82470 35142 ft 458 kts 54°
2026-04-24 21:05 24.13804 -152.76610 35132 ft 459 kts 54°
2026-04-24 21:06 24.17274 -152.70747 35129 ft 459 kts 54°
2026-04-24 21:06 24.20739 -152.64884 35134 ft 459 kts 54°
2026-04-24 21:07 24.24203 -152.59016 35132 ft 458 kts 54°
2026-04-24 21:07 24.27658 -152.53157 35137 ft 458 kts 54°
2026-04-24 21:08 24.31111 -152.47293 35136 ft 458 kts 54°
2026-04-24 21:08 24.34566 -152.41418 35135 ft 458 kts 54°
2026-04-24 21:09 24.37997 -152.35580 35131 ft 458 kts 54°
2026-04-24 21:09 24.41448 -152.29698 35130 ft 458 kts 54°
2026-04-24 21:10 24.44897 -152.23815 35136 ft 458 kts 54°
2026-04-24 21:10 24.48338 -152.17936 35128 ft 458 kts 54°
2026-04-24 21:11 24.51781 -152.12047 35130 ft 458 kts 54°
2026-04-24 21:11 24.55220 -152.06159 35133 ft 458 kts 54°
2026-04-24 21:12 24.58658 -152.00264 35133 ft 458 kts 54°
2026-04-24 21:12 24.62093 -151.94368 35130 ft 458 kts 54°
2026-04-24 21:13 24.65526 -151.88467 35137 ft 458 kts 54°
2026-04-24 21:13 24.68951 -151.82575 35127 ft 457 kts 54°
2026-04-24 21:14 24.72371 -151.76682 35127 ft 457 kts 55°
2026-04-24 21:14 24.75789 -151.70786 35131 ft 457 kts 55°
2026-04-24 21:15 24.79206 -151.64886 35130 ft 457 kts 55°
2026-04-24 21:15 24.82618 -151.58984 35133 ft 457 kts 55°
2026-04-24 21:16 24.86030 -151.53079 35136 ft 457 kts 55°
2026-04-24 21:16 24.89428 -151.47187 35131 ft 456 kts 55°
2026-04-24 21:17 24.92825 -151.41292 35127 ft 456 kts 55°
2026-04-24 21:17 24.95647 -151.36390 35129 ft 456 kts 55°
2026-04-24 21:18 24.99611 -151.29492 35131 ft 456 kts 55°
2026-04-24 21:18 25.03006 -151.23580 35130 ft 456 kts 55°
2026-04-24 21:19 25.06395 -151.17666 35134 ft 456 kts 55°
2026-04-24 21:19 25.09774 -151.11768 35128 ft 454 kts 55°
2026-04-24 21:20 25.14830 -151.02924 35132 ft 454 kts 55°
2026-04-24 21:21 25.18200 -150.97020 35125 ft 455 kts 55°
2026-04-24 21:21 25.21570 -150.91110 35124 ft 455 kts 55°
2026-04-24 21:22 25.24938 -150.85194 35123 ft 455 kts 55°
2026-04-24 21:22 25.28301 -150.79281 35124 ft 455 kts 55°
2026-04-24 21:23 25.31664 -150.73360 35122 ft 455 kts 55°
2026-04-24 21:23 25.35031 -150.67425 35121 ft 456 kts 55°
2026-04-24 21:24 25.38397 -150.61483 35124 ft 456 kts 55°
2026-04-24 21:24 25.41761 -150.55539 35121 ft 456 kts 55°
2026-04-24 21:25 25.45123 -150.49589 35129 ft 456 kts 55°
2026-04-24 21:25 25.48450 -150.43693 35127 ft 454 kts 55°
2026-04-24 21:26 25.51796 -150.37759 35121 ft 455 kts 55°
2026-04-24 21:26 25.55142 -150.31816 35126 ft 455 kts 55°
2026-04-24 21:27 25.58485 -150.25869 35122 ft 455 kts 56°
2026-04-24 21:27 25.61824 -150.19922 35130 ft 455 kts 56°
2026-04-24 21:28 25.65164 -150.13969 35133 ft 455 kts 55°
2026-04-24 21:28 25.68498 -150.08016 35125 ft 454 kts 55°
2026-04-24 21:29 25.71830 -150.02060 35126 ft 455 kts 55°
2026-04-24 21:29 25.75160 -149.96098 35127 ft 454 kts 56°
2026-04-24 21:30 25.78487 -149.90136 35124 ft 454 kts 56°
2026-04-24 21:30 25.81810 -149.84172 35127 ft 455 kts 55°
2026-04-24 21:31 25.85134 -149.78198 35133 ft 454 kts 56°
2026-04-24 21:31 25.88446 -149.72238 35130 ft 454 kts 56°
2026-04-24 21:32 25.91757 -149.66274 35130 ft 454 kts 56°
2026-04-24 21:32 25.95067 -149.60304 35131 ft 454 kts 56°
2026-04-24 21:33 25.98374 -149.54330 35138 ft 454 kts 56°
2026-04-24 21:33 26.01683 -149.48344 35127 ft 454 kts 56°
2026-04-24 21:34 26.04985 -149.42366 35127 ft 453 kts 56°
2026-04-24 21:34 26.08273 -149.36403 35127 ft 452 kts 56°
2026-04-24 21:35 26.11560 -149.30433 35137 ft 452 kts 56°
2026-04-24 21:35 26.14823 -149.24501 35129 ft 452 kts 56°
2026-04-24 21:36 26.18107 -149.18522 35134 ft 452 kts 56°
2026-04-24 21:36 26.21387 -149.12544 35140 ft 452 kts 56°
2026-04-24 21:37 26.24657 -149.06574 35132 ft 451 kts 56°
2026-04-24 21:37 26.27923 -149.00607 35137 ft 451 kts 56°
2026-04-24 21:38 26.31188 -148.94629 35136 ft 451 kts 56°
2026-04-24 21:38 26.34451 -148.88651 35135 ft 452 kts 56°
2026-04-24 21:39 26.37184 -148.83636 35137 ft 452 kts 56°
2026-04-24 21:39 26.40443 -148.77649 35140 ft 451 kts 56°
2026-04-24 21:40 26.43694 -148.71669 35143 ft 451 kts 56°
2026-04-24 21:40 26.46922 -148.65723 35138 ft 451 kts 56°
2026-04-24 21:41 26.50168 -148.59736 35140 ft 451 kts 56°
2026-04-24 21:41 26.53413 -148.53743 35141 ft 451 kts 56°
2026-04-24 21:42 26.56655 -148.47747 35140 ft 451 kts 56°
2026-04-24 21:42 26.59893 -148.41751 35146 ft 450 kts 55°
2026-04-24 21:43 26.63124 -148.35761 35137 ft 450 kts 55°
2026-04-24 21:43 26.66353 -148.29766 35143 ft 450 kts 55°
2026-04-24 21:44 26.69580 -148.23766 35143 ft 450 kts 55°
2026-04-24 21:44 26.72804 -148.17764 35152 ft 450 kts 55°
2026-04-24 21:45 26.76027 -148.11755 35148 ft 450 kts 55°
2026-04-24 21:45 26.79241 -148.05754 35151 ft 449 kts 55°
2026-04-24 21:46 26.82452 -147.99752 35148 ft 449 kts 55°
2026-04-24 21:46 26.85661 -147.93745 35150 ft 449 kts 55°
2026-04-24 21:47 26.88868 -147.87734 35151 ft 449 kts 55°
2026-04-24 21:47 26.92068 -147.81728 35152 ft 449 kts 55°
2026-04-24 21:48 26.95267 -147.75719 35156 ft 449 kts 55°
2026-04-24 21:48 26.98462 -147.69708 35151 ft 449 kts 55°
2026-04-24 21:49 27.01652 -147.63698 35162 ft 449 kts 55°
2026-04-24 21:49 27.04839 -147.57687 35154 ft 448 kts 55°
2026-04-24 21:50 27.08020 -147.51678 35154 ft 448 kts 55°
2026-04-24 21:50 27.11200 -147.45663 35154 ft 448 kts 55°
2026-04-24 21:51 27.14376 -147.39648 35154 ft 448 kts 55°
2026-04-24 21:51 27.17552 -147.33625 35155 ft 448 kts 55°
2026-04-24 21:52 27.20724 -147.27601 35163 ft 448 kts 55°
2026-04-24 21:52 27.23830 -147.21525 35154 ft 451 kts 61°
2026-04-24 21:53 27.26488 -147.15143 35170 ft 451 kts 60°
2026-04-24 21:53 27.29211 -147.08797 35168 ft 450 kts 59°
2026-04-24 21:54 27.31937 -147.02470 35159 ft 449 kts 59°
2026-04-24 21:54 27.34660 -146.96140 35165 ft 450 kts 59°
2026-04-24 21:55 27.37362 -146.89850 35163 ft 450 kts 59°
2026-04-24 21:55 27.40082 -146.83508 35178 ft 450 kts 59°
2026-04-24 21:56 27.42800 -146.77163 35175 ft 450 kts 59°
2026-04-24 21:56 27.45512 -146.70819 35173 ft 449 kts 59°
2026-04-24 21:57 27.48221 -146.64474 35168 ft 450 kts 59°
2026-04-24 21:57 27.50928 -146.58125 35162 ft 450 kts 59°
2026-04-24 21:58 27.53633 -146.51769 35174 ft 450 kts 59°
2026-04-24 21:58 27.56339 -146.45401 35172 ft 450 kts 59°
2026-04-24 21:59 27.59042 -146.39033 35178 ft 450 kts 59°
2026-04-24 21:59 27.61735 -146.32673 35179 ft 450 kts 59°
2026-04-24 22:00 27.64428 -146.26307 35171 ft 450 kts 59°
2026-04-24 22:00 27.67120 -146.19930 35173 ft 450 kts 59°
2026-04-24 22:01 27.69810 -146.13550 35181 ft 450 kts 59°
2026-04-24 22:01 27.72496 -146.07170 35187 ft 450 kts 59°
2026-04-24 22:02 27.75180 -146.00785 35174 ft 450 kts 59°
2026-04-24 22:02 27.77858 -145.94402 35178 ft 450 kts 59°
2026-04-24 22:03 27.80536 -145.88012 35177 ft 450 kts 59°
2026-04-24 22:03 27.83210 -145.81619 35179 ft 450 kts 59°
2026-04-24 22:04 27.85881 -145.75222 35184 ft 450 kts 59°
2026-04-24 22:04 27.88550 -145.68822 35186 ft 450 kts 59°
2026-04-24 22:05 27.91216 -145.62419 35179 ft 450 kts 59°
2026-04-24 22:05 27.93879 -145.56011 35181 ft 450 kts 59°
2026-04-24 22:06 27.96539 -145.49599 35188 ft 450 kts 59°
2026-04-24 22:06 27.99199 -145.43181 35183 ft 451 kts 59°
2026-04-24 22:07 28.01856 -145.36755 35198 ft 451 kts 59°
2026-04-24 22:07 28.04510 -145.30330 35181 ft 450 kts 59°
2026-04-24 22:08 28.07157 -145.23907 35185 ft 450 kts 59°
2026-04-24 22:08 28.09806 -145.17473 35182 ft 451 kts 59°
2026-04-24 22:09 28.12451 -145.11037 35181 ft 451 kts 59°
2026-04-24 22:09 28.15093 -145.04599 35181 ft 451 kts 59°
2026-04-24 22:10 28.17733 -144.98155 35190 ft 451 kts 59°
2026-04-24 22:10 28.20367 -144.91711 35185 ft 450 kts 59°
2026-04-24 22:11 28.22999 -144.85265 35186 ft 451 kts 59°
2026-04-24 22:11 28.25611 -144.78857 35186 ft 451 kts 59°
2026-04-24 22:12 28.28256 -144.72358 35193 ft 451 kts 59°
2026-04-24 22:12 28.30880 -144.65898 35200 ft 451 kts 59°
2026-04-24 22:13 28.33499 -144.59441 35193 ft 450 kts 59°
2026-04-24 22:13 28.36112 -144.52986 35186 ft 450 kts 59°
2026-04-24 22:14 28.38706 -144.46568 35195 ft 450 kts 59°
2026-04-24 22:14 28.41317 -144.40101 35195 ft 450 kts 59°
2026-04-24 22:15 28.43924 -144.33631 35189 ft 450 kts 59°
2026-04-24 22:15 28.46527 -144.27160 35194 ft 449 kts 59°
2026-04-24 22:16 28.49120 -144.20701 35192 ft 450 kts 59°
2026-04-24 22:16 28.51715 -144.14228 35187 ft 450 kts 59°
2026-04-24 22:17 28.54306 -144.07754 35187 ft 450 kts 59°
2026-04-24 22:17 28.56895 -144.01274 35187 ft 450 kts 59°
2026-04-24 22:18 28.59484 -143.94783 35189 ft 451 kts 60°
2026-04-24 22:18 28.62079 -143.88267 35189 ft 452 kts 60°
2026-04-24 22:19 28.64669 -143.81751 35186 ft 452 kts 60°
2026-04-24 22:19 28.67259 -143.75227 35192 ft 452 kts 60°
2026-04-24 22:20 28.69856 -143.68671 35193 ft 457 kts 60°
2026-04-24 22:20 28.72472 -143.62058 35202 ft 457 kts 60°
2026-04-24 22:21 28.75070 -143.55477 35192 ft 455 kts 60°
2026-04-24 22:21 28.77664 -143.48896 35192 ft 455 kts 60°
2026-04-24 22:22 28.80254 -143.42312 35193 ft 455 kts 60°
2026-04-24 22:22 28.82840 -143.35729 35191 ft 455 kts 60°
2026-04-24 22:23 28.84988 -143.30252 35197 ft 455 kts 60°
2026-04-24 22:23 28.87561 -143.23677 35201 ft 454 kts 61°
2026-04-24 22:24 28.90147 -143.17063 35191 ft 458 kts 61°
2026-04-24 22:24 28.92736 -143.10428 35191 ft 457 kts 61°
2026-04-24 22:25 28.95320 -143.03792 35196 ft 457 kts 61°
2026-04-24 22:25 28.97902 -142.97154 35211 ft 458 kts 61°
2026-04-24 22:26 29.00483 -142.90502 35190 ft 457 kts 61°
2026-04-24 22:26 29.03057 -142.83857 35192 ft 458 kts 61°
2026-04-24 22:27 29.05630 -142.77205 35190 ft 458 kts 61°
2026-04-24 22:27 29.08206 -142.70531 35192 ft 461 kts 61°
2026-04-24 22:28 29.10793 -142.63821 35210 ft 460 kts 61°
2026-04-24 22:28 29.13360 -142.57147 35193 ft 457 kts 61°
2026-04-24 22:29 29.17202 -142.47137 35191 ft 460 kts 61°
2026-04-24 22:29 29.19772 -142.40425 35194 ft 461 kts 61°
2026-04-24 22:30 29.22339 -142.33710 35208 ft 460 kts 61°
2026-04-24 22:30 29.24900 -142.26999 35199 ft 459 kts 61°
2026-04-24 22:31 29.27461 -142.20274 35201 ft 461 kts 61°
2026-04-24 22:31 29.30005 -142.13584 35192 ft 461 kts 61°
2026-04-24 22:32 29.32563 -142.06842 35194 ft 461 kts 61°
2026-04-24 22:32 29.35121 -142.00091 35210 ft 463 kts 61°
2026-04-24 22:33 29.37680 -141.93323 35197 ft 462 kts 61°
2026-04-24 22:33 29.40233 -141.86559 35194 ft 462 kts 61°
2026-04-24 22:34 29.42782 -141.79791 35198 ft 462 kts 61°
2026-04-24 22:34 29.45335 -141.73004 35200 ft 464 kts 61°
2026-04-24 22:35 29.47886 -141.66208 35204 ft 463 kts 61°
2026-04-24 22:35 29.50428 -141.59421 35197 ft 463 kts 61°
2026-04-24 22:36 29.52969 -141.52626 35196 ft 464 kts 61°
2026-04-24 22:36 29.55513 -141.45810 35196 ft 464 kts 61°
2026-04-24 22:37 29.58055 -141.38987 35192 ft 464 kts 61°
2026-04-24 22:37 29.60591 -141.32170 35206 ft 463 kts 61°
2026-04-24 22:38 29.63124 -141.25343 35199 ft 465 kts 61°
2026-04-24 22:38 29.65642 -141.18544 35200 ft 465 kts 61°
2026-04-24 22:39 29.68173 -141.11700 35195 ft 465 kts 61°
2026-04-24 22:39 29.70702 -141.04851 35211 ft 465 kts 61°
2026-04-24 22:40 29.73223 -140.98010 35194 ft 464 kts 61°
2026-04-24 22:40 29.75739 -140.91171 35195 ft 464 kts 61°
2026-04-24 22:41 29.78253 -140.84324 35194 ft 465 kts 61°
2026-04-24 22:41 29.80772 -140.77452 35195 ft 466 kts 61°
2026-04-24 22:42 29.83290 -140.70570 35191 ft 466 kts 61°
2026-04-24 22:42 29.85807 -140.63678 35203 ft 467 kts 62°
2026-04-24 22:43 29.88327 -140.56763 35192 ft 469 kts 62°
2026-04-24 22:43 29.90851 -140.49827 35189 ft 469 kts 62°
2026-04-24 22:44 29.93372 -140.42884 35209 ft 469 kts 62°
2026-04-24 22:44 29.95774 -140.35874 35203 ft 472 kts 64°
2026-04-24 22:45 29.98085 -140.28785 35191 ft 472 kts 64°
2026-04-24 22:45 30.00408 -140.21707 35192 ft 472 kts 64°
2026-04-24 22:46 30.02715 -140.14667 35194 ft 473 kts 64°
2026-04-24 22:46 30.05041 -140.07553 35192 ft 474 kts 64°
2026-04-24 22:47 30.07362 -140.00442 35197 ft 473 kts 64°
2026-04-24 22:47 30.09680 -139.93324 35201 ft 474 kts 64°
2026-04-24 22:48 30.11999 -139.86187 35194 ft 475 kts 64°
2026-04-24 22:48 30.14317 -139.79038 35206 ft 475 kts 64°
2026-04-24 22:49 30.16626 -139.71900 35201 ft 475 kts 64°
2026-04-24 22:49 30.18941 -139.64731 35196 ft 477 kts 64°
2026-04-24 22:50 30.21255 -139.57549 35189 ft 477 kts 64°
2026-04-24 22:50 30.23564 -139.50366 35196 ft 477 kts 64°
2026-04-24 22:51 30.25875 -139.43160 35192 ft 478 kts 64°
2026-04-24 22:51 30.28181 -139.35955 35198 ft 478 kts 64°
2026-04-24 22:52 30.30483 -139.28748 35195 ft 478 kts 64°
2026-04-24 22:52 30.32790 -139.21510 35194 ft 480 kts 64°
2026-04-24 22:53 30.35096 -139.14258 35203 ft 480 kts 64°
2026-04-24 22:53 30.37393 -139.07018 35192 ft 479 kts 64°
2026-04-24 22:54 30.39691 -138.99757 35195 ft 481 kts 64°
2026-04-24 22:54 30.41992 -138.92475 35191 ft 481 kts 64°
2026-04-24 22:55 30.44288 -138.85190 35212 ft 481 kts 63°
2026-04-24 22:55 30.46574 -138.77919 35194 ft 480 kts 63°
2026-04-24 22:56 30.48854 -138.70651 35189 ft 480 kts 64°
2026-04-24 22:56 30.51131 -138.63380 35202 ft 480 kts 63°
2026-04-24 22:57 30.53415 -138.56068 35211 ft 483 kts 63°
2026-04-24 22:57 30.55680 -138.48801 35190 ft 482 kts 63°
2026-04-24 22:58 30.57953 -138.41490 35199 ft 483 kts 63°
2026-04-24 22:58 30.60235 -138.34134 35192 ft 485 kts 63°
2026-04-24 22:59 30.62518 -138.26759 35189 ft 485 kts 63°
2026-04-24 23:00 30.65937 -138.15682 35199 ft 488 kts 63°
2026-04-24 23:00 30.68220 -138.08263 35195 ft 489 kts 63°
2026-04-24 23:01 30.70504 -138.00826 35203 ft 489 kts 64°
2026-04-24 23:01 30.72794 -137.93348 35212 ft 493 kts 64°
2026-04-24 23:02 30.75080 -137.85868 35185 ft 490 kts 64°
2026-04-24 23:02 30.77360 -137.78390 35187 ft 491 kts 64°
2026-04-24 23:03 30.79646 -137.70877 35189 ft 494 kts 64°
2026-04-24 23:03 30.81930 -137.63349 35183 ft 493 kts 64°
2026-04-24 23:04 30.84210 -137.55816 35191 ft 495 kts 65°
2026-04-24 23:04 30.86496 -137.48248 35190 ft 496 kts 65°
2026-04-24 23:05 30.88781 -137.40665 35183 ft 496 kts 65°
2026-04-24 23:05 30.91061 -137.33076 35194 ft 497 kts 66°
2026-04-24 23:06 30.93341 -137.25473 35185 ft 497 kts 66°
2026-04-24 23:06 30.95616 -137.17866 35190 ft 497 kts 66°
2026-04-24 23:07 30.97892 -137.10240 35183 ft 499 kts 66°
2026-04-24 23:07 31.00151 -137.02647 35186 ft 498 kts 66°
2026-04-24 23:08 31.02415 -136.95022 35181 ft 498 kts 67°
2026-04-24 23:08 31.04684 -136.87364 35181 ft 500 kts 67°
2026-04-24 23:09 31.06950 -136.79696 35181 ft 500 kts 67°
2026-04-24 23:09 31.09208 -136.72034 35185 ft 498 kts 68°
2026-04-24 23:10 31.11454 -136.64392 35181 ft 498 kts 68°
2026-04-24 23:10 31.13698 -136.56741 35173 ft 498 kts 68°
2026-04-24 23:11 31.15942 -136.49069 35210 ft 500 kts 68°
2026-04-24 23:11 31.17817 -136.42645 35184 ft 497 kts 68°
2026-04-24 23:12 31.20042 -136.35006 35169 ft 498 kts 69°
2026-04-24 23:12 31.22275 -136.27316 35182 ft 501 kts 69°
2026-04-24 23:13 31.24508 -136.19608 35206 ft 500 kts 69°
2026-04-24 23:13 31.26726 -136.11932 35172 ft 499 kts 70°
2026-04-24 23:14 31.28932 -136.04280 35182 ft 501 kts 70°
2026-04-24 23:14 31.31150 -135.96569 35166 ft 500 kts 70°
2026-04-24 23:15 31.33368 -135.88833 35188 ft 501 kts 70°
2026-04-24 23:15 31.35575 -135.81120 35180 ft 500 kts 70°
2026-04-24 23:16 31.37776 -135.73402 35169 ft 501 kts 71°
2026-04-24 23:16 31.39986 -135.65641 35204 ft 503 kts 71°
2026-04-24 23:17 31.42184 -135.57898 35176 ft 499 kts 71°
2026-04-24 23:17 31.44376 -135.50156 35175 ft 503 kts 71°
2026-04-24 23:18 31.46570 -135.42386 35181 ft 502 kts 71°
2026-04-24 23:18 31.48759 -135.34612 35176 ft 502 kts 72°
2026-04-24 23:19 31.50944 -135.26837 35177 ft 502 kts 72°
2026-04-24 23:19 31.53124 -135.19055 35157 ft 502 kts 72°
2026-04-24 23:20 31.55289 -135.11307 35185 ft 505 kts 72°
2026-04-24 23:20 31.57466 -135.03498 35178 ft 502 kts 72°
2026-04-24 23:21 31.59629 -134.95714 35163 ft 503 kts 73°
2026-04-24 23:21 31.61800 -134.87887 35173 ft 505 kts 73°
2026-04-24 23:22 31.63966 -134.80054 35173 ft 504 kts 73°
2026-04-24 23:22 31.66126 -134.72220 35171 ft 504 kts 73°
2026-04-24 23:23 31.68281 -134.64385 35170 ft 504 kts 73°
2026-04-24 23:23 31.70431 -134.56544 35168 ft 505 kts 73°
2026-04-24 23:24 31.72583 -134.48678 35165 ft 506 kts 73°
2026-04-24 23:24 31.74732 -134.40801 35170 ft 508 kts 73°
2026-04-24 23:25 31.76886 -134.32884 35166 ft 509 kts 73°
2026-04-24 23:25 31.79035 -134.24963 35169 ft 509 kts 74°
2026-04-24 23:26 31.81181 -134.17033 35164 ft 510 kts 74°
2026-04-24 23:26 31.83329 -134.09071 35165 ft 511 kts 74°
2026-04-24 23:27 31.85472 -134.01108 35169 ft 511 kts 75°
2026-04-24 23:27 31.87613 -133.93129 35167 ft 512 kts 75°
2026-04-24 23:28 31.89750 -133.85144 35166 ft 512 kts 75°
2026-04-24 23:28 31.91883 -133.77149 35165 ft 513 kts 75°
2026-04-24 23:29 31.94016 -133.69133 35168 ft 513 kts 75°
2026-04-24 23:29 31.96142 -133.61120 35155 ft 513 kts 76°
2026-04-24 23:30 31.98269 -133.53086 35165 ft 515 kts 76°
2026-04-24 23:30 32.00395 -133.45035 35161 ft 514 kts 76°
2026-04-24 23:31 32.02519 -133.36972 35159 ft 517 kts 76°
2026-04-24 23:31 32.04646 -133.28872 35158 ft 517 kts 76°
2026-04-24 23:32 32.06767 -133.20770 35151 ft 517 kts 77°
2026-04-24 23:32 32.08872 -133.12711 35159 ft 518 kts 77°
2026-04-24 23:33 32.10988 -133.04584 35161 ft 518 kts 77°
2026-04-24 23:33 32.13098 -132.96460 35150 ft 518 kts 77°
2026-04-24 23:34 32.15204 -132.88328 35162 ft 518 kts 77°
2026-04-24 23:34 32.17728 -132.80354 35153 ft 523 kts 64°
2026-04-24 23:35 32.21103 -132.72734 35147 ft 524 kts 65°
2026-04-24 23:35 32.24480 -132.65100 35154 ft 524 kts 65°
2026-04-24 23:36 32.27856 -132.57466 35144 ft 525 kts 65°
2026-04-24 23:36 32.31235 -132.49811 35149 ft 525 kts 65°
2026-04-24 23:37 32.34609 -132.42150 35156 ft 525 kts 65°
2026-04-24 23:37 32.39663 -132.30644 35154 ft 526 kts 65°
2026-04-24 23:38 32.43028 -132.22964 35149 ft 525 kts 65°
2026-04-24 23:38 32.46386 -132.15282 35153 ft 525 kts 65°
2026-04-24 23:39 32.49737 -132.07602 35146 ft 525 kts 65°
2026-04-24 23:39 32.53083 -131.99915 35149 ft 525 kts 65°
2026-04-24 23:40 32.56425 -131.92221 35155 ft 525 kts 65°
2026-04-24 23:40 32.59760 -131.84527 35153 ft 525 kts 65°
2026-04-24 23:41 32.63091 -131.76824 35143 ft 525 kts 65°
2026-04-24 23:41 32.66419 -131.69114 35150 ft 525 kts 65°
2026-04-24 23:42 32.69743 -131.61395 35151 ft 525 kts 65°
2026-04-24 23:42 32.73062 -131.53674 35144 ft 525 kts 65°
2026-04-24 23:43 32.76374 -131.45947 35152 ft 525 kts 65°
2026-04-24 23:43 32.79682 -131.38217 35148 ft 525 kts 65°
2026-04-24 23:44 32.82986 -131.30478 35148 ft 525 kts 65°
2026-04-24 23:44 32.86287 -131.22728 35149 ft 525 kts 65°
2026-04-24 23:45 32.89585 -131.14969 35149 ft 525 kts 65°
2026-04-24 23:45 32.92878 -131.07205 35150 ft 526 kts 65°
2026-04-24 23:46 32.96170 -130.99424 35149 ft 526 kts 65°
2026-04-24 23:46 32.99459 -130.91637 35149 ft 526 kts 65°
2026-04-24 23:47 33.02742 -130.83844 35151 ft 526 kts 65°
2026-04-24 23:47 33.05998 -130.76098 35151 ft 526 kts 65°
2026-04-24 23:48 33.09271 -130.68294 35152 ft 526 kts 65°
2026-04-24 23:48 33.12541 -130.60483 35151 ft 526 kts 65°
2026-04-24 23:49 33.15803 -130.52670 35152 ft 526 kts 65°
2026-04-24 23:49 33.19060 -130.44854 35149 ft 526 kts 65°
2026-04-24 23:50 33.22312 -130.37029 35151 ft 526 kts 65°
2026-04-24 23:50 33.25559 -130.29202 35151 ft 526 kts 65°
2026-04-24 23:51 33.28798 -130.21378 35147 ft 526 kts 65°
2026-04-24 23:51 33.32039 -130.13527 35149 ft 527 kts 65°
2026-04-24 23:52 33.35278 -130.05665 35148 ft 527 kts 65°
2026-04-24 23:52 33.38510 -129.97801 35146 ft 527 kts 65°
2026-04-24 23:53 33.41744 -129.89915 35149 ft 527 kts 65°
2026-04-24 23:53 33.44971 -129.82029 35143 ft 527 kts 65°
2026-04-24 23:54 33.48194 -129.74133 35143 ft 528 kts 65°
2026-04-24 23:54 33.51414 -129.66227 35143 ft 528 kts 65°
2026-04-24 23:55 33.54629 -129.58316 35143 ft 528 kts 65°
2026-04-24 23:55 33.57840 -129.50395 35142 ft 528 kts 65°
2026-04-24 23:56 33.61044 -129.42474 35143 ft 528 kts 65°
2026-04-24 23:56 33.64244 -129.34544 35138 ft 528 kts 65°
2026-04-24 23:57 33.66896 -129.27959 35139 ft 527 kts 65°
2026-04-24 23:57 33.70078 -129.20040 35140 ft 527 kts 65°
2026-04-24 23:58 33.73256 -129.12117 35134 ft 527 kts 65°
2026-04-24 23:58 33.76428 -129.04192 35139 ft 526 kts 65°
2026-04-24 23:59 33.79595 -128.96262 35140 ft 526 kts 65°
2026-04-24 23:59 33.82755 -128.88331 35133 ft 526 kts 65°
2026-04-25 00:00 33.85822 -128.80346 35136 ft 525 kts 71°
2026-04-25 00:00 33.87882 -128.71950 35135 ft 522 kts 81°
2026-04-25 00:01 33.88310 -128.67639 35106 ft 516 kts 96°
2026-04-25 00:01 33.87881 -128.63417 35147 ft 505 kts 107°
2026-04-25 00:01 33.87372 -128.54911 35158 ft 516 kts 92°
2026-04-25 00:02 33.87554 -128.46260 35137 ft 517 kts 92°
2026-04-25 00:02 33.87770 -128.37608 35134 ft 517 kts 92°
2026-04-25 00:03 33.87985 -128.28956 35133 ft 517 kts 92°
2026-04-25 00:03 33.88194 -128.20303 35131 ft 517 kts 92°
2026-04-25 00:04 33.88397 -128.11703 35132 ft 518 kts 92°
2026-04-25 00:04 33.88594 -128.03036 35130 ft 518 kts 92°
2026-04-25 00:05 33.88786 -127.94360 35125 ft 518 kts 92°
2026-04-25 00:05 33.88972 -127.85670 35132 ft 520 kts 91°
2026-04-25 00:06 33.89152 -127.76964 35127 ft 520 kts 92°
2026-04-25 00:06 33.89327 -127.68260 35124 ft 521 kts 92°
2026-04-25 00:07 33.89495 -127.59539 35125 ft 522 kts 92°
2026-04-25 00:07 33.89657 -127.50811 35121 ft 521 kts 92°
2026-04-25 00:08 33.89813 -127.42088 35114 ft 521 kts 91°
2026-04-25 00:08 33.89963 -127.33367 35118 ft 521 kts 91°
2026-04-25 00:09 33.90106 -127.24649 35122 ft 521 kts 92°
2026-04-25 00:09 33.90243 -127.15933 35116 ft 521 kts 91°
2026-04-25 00:10 33.90375 -127.07216 35116 ft 521 kts 91°
2026-04-25 00:10 33.90499 -126.98501 35111 ft 521 kts 91°
2026-04-25 00:11 33.90619 -126.89796 35113 ft 520 kts 91°
2026-04-25 00:11 33.90731 -126.81094 35111 ft 520 kts 92°
2026-04-25 00:12 33.90838 -126.72395 35111 ft 519 kts 92°
2026-04-25 00:12 33.90938 -126.63700 35109 ft 519 kts 92°
2026-04-25 00:13 33.91032 -126.55008 35106 ft 519 kts 92°
2026-04-25 00:13 33.91121 -126.46314 35111 ft 520 kts 92°
2026-04-25 00:14 33.91202 -126.37615 35107 ft 520 kts 92°
2026-04-25 00:14 33.91278 -126.28918 35106 ft 520 kts 92°
2026-04-25 00:15 33.91348 -126.20220 35081 ft 520 kts 92°
2026-04-25 00:15 33.91412 -126.11538 35103 ft 518 kts 92°
2026-04-25 00:16 33.91469 -126.02857 35102 ft 518 kts 92°
2026-04-25 00:16 33.91520 -125.94178 35100 ft 518 kts 92°
2026-04-25 00:17 33.91566 -125.85500 35100 ft 518 kts 92°
2026-04-25 00:17 33.91605 -125.76823 35097 ft 518 kts 92°
2026-04-25 00:18 33.91638 -125.68142 35100 ft 519 kts 92°
2026-04-25 00:18 33.91665 -125.59459 35096 ft 519 kts 92°
2026-04-25 00:19 33.91686 -125.50781 35091 ft 518 kts 93°
2026-04-25 00:19 33.91701 -125.42106 35094 ft 519 kts 93°
2026-04-25 00:20 33.91710 -125.33421 35092 ft 518 kts 93°
2026-04-25 00:20 33.91713 -125.24742 35094 ft 518 kts 93°
2026-04-25 00:21 33.91712 -125.16063 35092 ft 519 kts 93°
2026-04-25 00:21 33.91704 -125.07377 35086 ft 519 kts 93°
2026-04-25 00:22 33.91691 -124.98693 35081 ft 519 kts 93°
2026-04-25 00:22 33.92034 -124.90023 35040 ft 522 kts 78°
2026-04-25 00:23 33.93759 -124.81491 35075 ft 527 kts 79°
2026-04-25 00:23 33.95372 -124.72870 35083 ft 528 kts 79°
2026-04-25 00:24 33.96985 -124.64247 35078 ft 528 kts 79°
2026-04-25 00:24 33.98593 -124.55620 35082 ft 528 kts 79°
2026-04-25 00:25 34.00184 -124.47046 35072 ft 528 kts 79°
2026-04-25 00:25 34.01781 -124.38399 35070 ft 529 kts 79°
2026-04-25 00:26 34.03375 -124.29737 35071 ft 529 kts 79°
2026-04-25 00:26 34.04963 -124.21074 35075 ft 529 kts 79°
2026-04-25 00:27 34.06545 -124.12402 35065 ft 530 kts 79°
2026-04-25 00:27 34.08122 -124.03724 35073 ft 530 kts 79°
2026-04-25 00:28 34.09693 -123.95044 35076 ft 530 kts 79°
2026-04-25 00:28 34.11257 -123.86361 35065 ft 530 kts 79°
2026-04-25 00:29 34.12817 -123.77663 35061 ft 530 kts 79°
2026-04-25 00:29 34.14372 -123.68961 35076 ft 530 kts 79°
2026-04-25 00:30 34.15920 -123.60256 35055 ft 531 kts 79°
2026-04-25 00:30 34.17463 -123.51541 35056 ft 531 kts 79°
2026-04-25 00:31 34.19000 -123.42826 35057 ft 530 kts 79°
2026-04-25 00:31 34.20529 -123.34113 35051 ft 530 kts 79°
2026-04-25 00:32 34.22054 -123.25391 35023 ft 530 kts 79°
2026-04-25 00:32 34.23580 -123.16634 35049 ft 534 kts 79°
2026-04-25 00:33 34.24880 -123.07815 35024 ft 530 kts 92°
2026-04-25 00:33 34.24892 -122.98916 35035 ft 530 kts 93°
2026-04-25 00:34 34.24897 -122.90006 35048 ft 530 kts 93°
2026-04-25 00:34 34.24887 -122.81152 35038 ft 531 kts 93°
2026-04-25 00:35 34.24871 -122.72227 35036 ft 531 kts 94°
2026-04-25 00:35 34.24847 -122.63306 35043 ft 531 kts 94°
2026-04-25 00:36 34.24818 -122.54386 35039 ft 531 kts 94°
2026-04-25 00:36 34.24781 -122.45455 35033 ft 531 kts 94°
2026-04-25 00:37 34.24739 -122.36527 35030 ft 532 kts 94°
2026-04-25 00:37 34.24689 -122.27577 35026 ft 533 kts 94°
2026-04-25 00:38 34.24634 -122.18612 35026 ft 533 kts 94°
2026-04-25 00:38 34.24571 -122.09650 35026 ft 533 kts 94°
2026-04-25 00:39 34.24502 -122.00689 35024 ft 534 kts 94°
2026-04-25 00:39 34.24427 -121.91713 35022 ft 534 kts 94°
2026-04-25 00:40 34.24345 -121.82778 35026 ft 534 kts 94°
2026-04-25 00:40 34.24257 -121.73861 35015 ft 534 kts 94°
2026-04-25 00:41 34.24162 -121.64874 34995 ft 534 kts 94°
2026-04-25 00:41 34.24060 -121.55897 35008 ft 534 kts 94°
2026-04-25 00:42 34.23952 -121.46918 35010 ft 535 kts 94°
2026-04-25 00:42 34.23838 -121.37987 35004 ft 535 kts 94°
2026-04-25 00:43 34.23717 -121.28997 35001 ft 535 kts 94°
2026-04-25 00:43 34.23588 -121.20006 35006 ft 535 kts 94°
2026-04-25 00:44 34.23454 -121.11004 34999 ft 536 kts 94°
2026-04-25 00:44 34.23313 -121.02009 35003 ft 536 kts 94°
2026-04-25 00:45 34.23166 -120.93068 35016 ft 536 kts 94°
2026-04-25 00:45 34.23011 -120.84055 35005 ft 537 kts 94°
2026-04-25 00:46 34.22850 -120.75036 35012 ft 537 kts 94°
2026-04-25 00:47 34.22595 -120.61507 34997 ft 537 kts 94°
2026-04-25 00:47 34.22419 -120.52550 34997 ft 537 kts 94°
2026-04-25 00:48 34.22234 -120.43533 34992 ft 537 kts 95°
2026-04-25 00:48 34.22043 -120.34515 34998 ft 538 kts 95°
2026-04-25 00:49 34.21879 -120.27009 34978 ft 538 kts 95°
2026-04-25 00:49 34.21642 -120.16505 34923 ft 538 kts 95°
2026-04-25 00:50 34.21431 -120.07479 34971 ft 538 kts 95°
2026-04-25 00:50 34.21213 -119.98432 34938 ft 539 kts 95°
2026-04-25 00:51 34.21026 -119.90914 34931 ft 539 kts 95°
2026-04-25 00:51 34.20796 -119.81871 34945 ft 539 kts 95°
2026-04-25 00:52 34.20520 -119.71349 34934 ft 540 kts 95°
2026-04-25 00:52 34.20317 -119.63817 34933 ft 540 kts 95°
2026-04-25 00:53 34.20066 -119.54757 34942 ft 540 kts 95°
2026-04-25 00:53 34.19809 -119.45693 34946 ft 540 kts 95°
2026-04-25 00:54 34.19547 -119.36629 34925 ft 540 kts 95°
2026-04-25 00:54 34.19279 -119.27560 34944 ft 540 kts 95°
2026-04-25 00:55 34.19006 -119.18551 34944 ft 540 kts 95°
2026-04-25 00:55 34.18679 -119.09490 34927 ft 539 kts 100°
2026-04-25 00:56 34.17403 -119.00633 34930 ft 532 kts 111°
2026-04-25 00:56 34.14448 -118.92726 34916 ft 503 kts 137°
2026-04-25 00:57 34.10453 -118.85683 34903 ft 520 kts 122°
2026-04-25 00:57 34.07282 -118.77870 34917 ft 523 kts 123°
2026-04-25 00:58 34.04109 -118.69979 34941 ft 523 kts 123°
2026-04-25 00:58 34.00940 -118.62095 34939 ft 523 kts 122°
2026-04-25 00:59 33.97764 -118.54214 34944 ft 523 kts 122°
2026-04-25 00:59 33.94581 -118.46332 34721 ft 523 kts 123°
2026-04-25 00:59 33.92726 -118.42656 34321 ft 504 kts 137°
2026-04-25 01:00 33.90445 -118.39578 33478 ft 500 kts 141°
2026-04-25 01:00 33.88052 -118.36417 32397 ft 507 kts 140°
2026-04-25 01:00 33.85687 -118.33325 31397 ft 511 kts 140°
2026-04-25 01:00 33.83274 -118.30195 30752 ft 508 kts 140°
2026-04-25 01:01 33.80888 -118.27110 30375 ft 498 kts 140°
2026-04-25 01:01 33.78548 -118.24088 29930 ft 491 kts 139°
2026-04-25 01:01 33.76247 -118.21064 29216 ft 489 kts 139°
2026-04-25 01:01 33.73958 -118.18052 28551 ft 487 kts 139°
2026-04-25 01:02 33.71688 -118.15071 28073 ft 480 kts 139°
2026-04-25 01:02 33.69443 -118.12128 27526 ft 476 kts 139°
2026-04-25 01:02 33.67245 -118.09247 26973 ft 473 kts 139°
2026-04-25 01:02 33.65033 -118.06350 26427 ft 468 kts 139°
2026-04-25 01:03 33.62840 -118.03482 25869 ft 464 kts 139°
2026-04-25 01:03 33.60670 -118.00645 25312 ft 459 kts 139°
2026-04-25 01:03 33.58523 -117.97840 24775 ft 454 kts 139°
2026-04-25 01:03 33.56395 -117.95063 24246 ft 450 kts 139°
2026-04-25 01:04 33.54222 -117.92410 23697 ft 443 kts 142°
2026-04-25 01:04 33.52007 -117.89849 23071 ft 440 kts 142°
2026-04-25 01:04 33.49827 -117.87305 22584 ft 434 kts 142°
2026-04-25 01:04 33.47683 -117.84795 22107 ft 428 kts 142°
2026-04-25 01:05 33.45566 -117.82316 21615 ft 423 kts 142°
2026-04-25 01:05 33.43463 -117.79966 21111 ft 417 kts 145°
2026-04-25 01:05 33.41295 -117.77664 20654 ft 415 kts 144°
2026-04-25 01:05 33.39151 -117.75372 20250 ft 412 kts 144°
2026-04-25 01:06 33.37039 -117.73108 20084 ft 401 kts 144°
2026-04-25 01:06 33.34998 -117.70920 20053 ft 387 kts 144°
2026-04-25 01:06 33.33028 -117.68808 20010 ft 375 kts 145°
2026-04-25 01:06 33.31057 -117.66700 19872 ft 385 kts 144°
2026-04-25 01:07 33.29048 -117.64549 19483 ft 390 kts 144°
2026-04-25 01:07 33.27032 -117.62392 19092 ft 389 kts 144°
2026-04-25 01:07 33.25041 -117.60271 18655 ft 389 kts 145°
2026-04-25 01:07 33.23012 -117.58134 18158 ft 389 kts 145°
2026-04-25 01:08 33.20983 -117.55996 17595 ft 387 kts 144°
2026-04-25 01:08 33.18980 -117.53886 17043 ft 381 kts 144°
2026-04-25 01:08 33.17008 -117.51811 16510 ft 375 kts 144°
2026-04-25 01:08 33.15061 -117.49762 15978 ft 371 kts 144°
2026-04-25 01:09 33.13081 -117.47840 15458 ft 364 kts 152°
2026-04-25 01:09 33.10994 -117.46121 15059 ft 363 kts 151°
2026-04-25 01:09 33.08975 -117.44433 14987 ft 357 kts 151°
2026-04-25 01:09 33.06946 -117.42722 14977 ft 358 kts 150°
2026-04-25 01:10 33.04918 -117.41008 14935 ft 356 kts 151°
2026-04-25 01:10 33.02834 -117.39269 13252 ft 381 kts 150°
2026-04-25 01:10 33.00607 -117.37405 11879 ft 395 kts 149°
2026-04-25 01:10 32.98445 -117.35587 11801 ft 366 kts 149°
2026-04-25 01:11 32.96425 -117.33894 11605 ft 346 kts 149°
2026-04-25 01:11 32.94500 -117.32284 11314 ft 330 kts 149°
2026-04-25 01:11 32.92668 -117.30752 11097 ft 314 kts 149°
2026-04-25 01:11 32.90905 -117.29283 10733 ft 305 kts 149°
2026-04-25 01:12 32.89218 -117.27880 10449 ft 294 kts 149°
2026-04-25 01:12 32.87573 -117.26512 10201 ft 284 kts 149°
2026-04-25 01:12 32.85965 -117.25175 9922 ft 281 kts 149°
2026-04-25 01:12 32.84372 -117.23852 9613 ft 279 kts 149°
2026-04-25 01:13 32.82785 -117.22534 9279 ft 277 kts 149°
2026-04-25 01:13 32.81403 -117.20946 8952 ft 280 kts 124°
2026-04-25 01:13 32.80689 -117.18812 8625 ft 276 kts 106°
2026-04-25 01:13 32.80194 -117.16638 8305 ft 269 kts 107°
2026-04-25 01:14 32.79708 -117.14517 8019 ft 264 kts 107°
2026-04-25 01:14 32.79230 -117.12414 7683 ft 263 kts 107°
2026-04-25 01:14 32.78760 -117.10325 7349 ft 261 kts 107°
2026-04-25 01:14 32.78301 -117.08279 7016 ft 258 kts 106°
2026-04-25 01:15 32.77837 -117.06241 6688 ft 253 kts 107°
2026-04-25 01:15 32.77240 -117.04300 6337 ft 248 kts 114°
2026-04-25 01:15 32.76573 -117.02435 6061 ft 243 kts 115°
2026-04-25 01:15 32.75907 -117.00602 5975 ft 241 kts 115°
2026-04-25 01:16 32.75257 -116.98781 5961 ft 234 kts 115°
2026-04-25 01:16 32.74642 -116.97041 5960 ft 225 kts 115°
2026-04-25 01:16 32.74033 -116.95343 5832 ft 222 kts 115°
2026-04-25 01:16 32.73391 -116.93676 5593 ft 221 kts 127°
2026-04-25 01:17 32.72211 -116.92645 5297 ft 209 kts 171°
2026-04-25 01:17 32.70805 -116.92633 5066 ft 201 kts 190°
2026-04-25 01:17 32.69431 -116.92856 4830 ft 203 kts 190°
2026-04-25 01:17 32.68065 -116.93255 4571 ft 201 kts 213°
2026-04-25 01:18 32.67207 -116.94487 4298 ft 195 kts 248°
2026-04-25 01:18 32.66766 -116.95970 4130 ft 187 kts 252°
2026-04-25 01:18 32.66732 -116.97461 3842 ft 184 kts 292°
2026-04-25 01:18 32.67486 -116.98623 3854 ft 176 kts 310°
2026-04-25 01:19 32.68331 -116.99680 3869 ft 177 kts 310°
2026-04-25 01:19 32.69175 -117.00748 3818 ft 178 kts 309°
2026-04-25 01:19 32.69831 -117.01963 3758 ft 175 kts 288°
2026-04-25 01:19 32.70188 -117.03334 3551 ft 177 kts 281°
2026-04-25 01:20 32.70448 -117.04781 3214 ft 181 kts 279°
2026-04-25 01:20 32.70652 -117.06210 2856 ft 170 kts 275°
2026-04-25 01:20 32.70808 -117.07575 2493 ft 166 kts 279°
2026-04-25 01:20 32.71123 -117.08874 2110 ft 161 kts 283°
2026-04-25 01:21 32.71412 -117.10150 1718 ft 159 kts 281°
2026-04-25 01:21 32.71689 -117.11393 1372 ft 151 kts 281°
2026-04-25 01:21 32.71948 -117.12559 1106 ft 142 kts 281°
2026-04-25 01:21 32.72176 -117.13687 894 ft 138 kts 281°
2026-04-25 01:22 32.72395 -117.14799 584 ft 138 kts 282°
2026-04-25 01:22 32.72635 -117.15889 401 ft 138 kts 283°
2026-04-25 01:22 32.72880 -117.17001 207 ft 140 kts 282°
2026-04-25 01:22 32.73139 -117.18091 44 ft 132 kts 285°
2026-04-25 01:23 32.73368 -117.19033 27 ft 100 kts 285°
2026-04-25 01:23 32.73499 -117.19560 29 ft 43 kts 286°
2026-04-25 01:23 32.73532 -117.19801 27 ft 20 kts 241°
2026-04-25 01:23 32.73486 -117.19833 28 ft 2 kts 185°
2026-04-25 01:24 32.73475 -117.19830 30 ft 2 kts 161°
2026-04-25 01:24 32.73458 -117.19809 25 ft 5 kts 115°
2026-04-25 01:24 32.73444 -117.19759 27 ft 8 kts 105°
2026-04-25 01:24 32.73407 -117.19703 26 ft 10 kts 158°
2026-04-25 01:25 32.73367 -117.19697 27 ft 2 kts 183°
2026-04-25 01:25 32.73343 -117.19707 25 ft 5 kts 206°
2026-04-25 01:25 32.73331 -117.19721 27 ft 3 kts 238°
2026-04-25 01:25 32.73331 -117.19751 27 ft 4 kts 285°
2026-04-25 01:26 32.73336 -117.19770 26 ft 2 kts 284°
2026-04-25 01:26 32.73337 -117.19777 27 ft 0 kts 285°